Monclova, OH

11:28 AM EST on February 11, 2016 (GMT -0500)
Toledo Express

Weather History for KTOL - February, 2013

Change the Weather History Date:

Wednesday, February 13, 2013

  Actual Average Record
Temperature  
Mean Temperature 32 °F 28 °F  
Max Temperature 38 °F 35 °F 66 °F (1938)
Min Temperature 26 °F 20 °F -12 °F (1905)
Degree Days  
Heating Degree Days 33 37  
Month to date heating degree days 522 499  
Since 1 July heating degree days 3914 4048  
Cooling Degree Days 0 0  
Month to date cooling degree days 0 0  
Year to date cooling degree days 0 0  
Moisture  
Dew Point 21 °F    
Average Humidity 69    
Maximum Humidity 85    
Minimum Humidity 52    
Precipitation  
Precipitation 0.00 in 0.07 in - ()
Month to date precipitation 0.55 0.91  
Year to date precipitation 4.17 2.96  
Snow  
Snow 0.00 in 0.30 in - ()
Month to date snowfall 7.7 4.7  
Since 1 July snowfall 17.8 25.8  
Snow Depth 0.00 in    
Sea Level Pressure  
Sea Level Pressure 29.85 in    
Wind  
Wind Speed 4 mph (West)    
Max Wind Speed 10 mph    
Max Gust Speed 13 mph    
Visibility 9 miles    
Events      
T = Trace of Precipitation, MM = Missing Value Source: NWS Daily Summary

Daily Weather History Graph

Daily Weather History Graph

Search for Another Location

Airport or City:

Trip Planner

Search our weather history database for the weather conditions in past years. The results will help you decide how hot, cold, wet, or windy it might be!

Date:

Astronomy

Feb. 13, 2013 Rise Set
Actual Time 7:32 AM EST 6:06 PM EST
Civil Twilight 7:04 AM EST 6:35 PM EST
Nautical Twilight 6:31 AM EST 7:07 PM EST
Astronomical Twilight 5:59 AM EST 7:39 PM EST
Moon 8:58 AM EST (2/13) 10:12 PM EST (2/13)
Length of Visible Light 11h 30m
Length of Day
10h 33m
Waxing Crescent, 13% of the Moon is Illuminated
Feb 13
Waxing Crescent
Feb 17
First Quarter
Feb 25
Full
Mar 4
Last Quarter
Mar 11
New

Hourly Weather History & Observations

Time (EST) Temp. Windchill Dew Point Humidity Pressure Visibility Wind Dir Wind Speed Gust Speed Precip Events Conditions
12:52 AM 28.9 °F 19.8 °F 21.0 °F 72% 29.94 in 10.0 mi NW 10.4 mph - N/A   Overcast
1:52 AM 28.0 °F 24.2 °F 19.9 °F 72% 29.94 in 10.0 mi West 3.5 mph - N/A   Overcast
2:52 AM 26.6 °F 18.2 °F 19.4 °F 74% 29.91 in 10.0 mi NNW 8.1 mph - N/A   Overcast
3:52 AM 27.0 °F 23.0 °F 19.9 °F 75% 29.91 in 10.0 mi NW 3.5 mph - N/A   Overcast
4:52 AM 27.0 °F 23.0 °F 19.9 °F 75% 29.90 in 10.0 mi Variable 3.5 mph - N/A   Overcast
5:52 AM 26.1 °F 20.5 °F 19.0 °F 75% 29.89 in 10.0 mi WNW 4.6 mph - N/A   Overcast
6:52 AM 26.1 °F 21.9 °F 19.0 °F 75% 29.88 in 10.0 mi North 3.5 mph - N/A   Overcast
7:52 AM 26.1 °F - 19.0 °F 75% 29.87 in 10.0 mi Calm Calm - N/A   Overcast
8:52 AM 26.1 °F - 19.0 °F 75% 29.86 in 10.0 mi Calm Calm - N/A   Overcast
9:52 AM 27.0 °F - 19.9 °F 75% 29.85 in 10.0 mi Calm Calm - N/A   Overcast
10:52 AM 27.0 °F 23.0 °F 19.9 °F 75% 29.86 in 10.0 mi SW 3.5 mph - N/A   Overcast
11:15 AM 30.2 °F - 19.4 °F 64% 29.82 in 10.0 mi Calm Calm - N/A   Scattered Clouds
11:52 AM 32.0 °F - 19.9 °F 61% 29.84 in 10.0 mi Calm Calm - N/A   Clear
12:52 PM 33.1 °F 27.7 °F 21.9 °F 64% 29.82 in 9.0 mi WNW 5.8 mph - N/A   Clear
1:52 PM 35.1 °F 31.0 °F 21.9 °F 59% 29.80 in 10.0 mi WNW 4.6 mph - N/A   Clear
2:52 PM 36.0 °F 30.3 °F 21.9 °F 57% 29.78 in 10.0 mi West 6.9 mph - N/A   Clear
3:52 PM 37.0 °F 34.5 °F 21.9 °F 54% 29.77 in 10.0 mi Variable 3.5 mph - N/A   Clear
4:52 PM 36.0 °F 31.1 °F 23.0 °F 59% 29.77 in 9.0 mi WSW 5.8 mph - N/A   Clear
5:52 PM 35.1 °F 31.0 °F 23.0 °F 61% 29.78 in 10.0 mi SW 4.6 mph - N/A   Clear
6:52 PM 30.0 °F 26.5 °F 23.0 °F 75% 29.80 in 9.0 mi South 3.5 mph - N/A   Clear
7:52 PM 30.0 °F 25.2 °F 24.1 °F 79% 29.81 in 7.0 mi South 4.6 mph - N/A   Clear
8:52 PM 28.9 °F - 24.1 °F 82% 29.82 in 7.0 mi Calm Calm - N/A   Clear
9:52 PM 28.9 °F 25.2 °F 24.1 °F 82% 29.82 in 7.0 mi SSE 3.5 mph - N/A   Mostly Cloudy
10:52 PM 28.0 °F - 24.1 °F 85% 29.82 in 6.0 mi Calm Calm - N/A   Clear
11:52 PM 28.0 °F 21.7 °F 24.1 °F 85% 29.81 in 7.0 mi South 5.8 mph - N/A   Clear